AAL1648 TISX-KMIA

Flight info

Callsign AAL1648
Flight time 2h 44m
Altitude 36000
Route HMLTN9 STT RTE6 SJU DCT ACONY Y280 SAPPO Y399 CADGE/N0454F380 Y399 ZQA VIICE2
Aircraft B738/M-SDE2E3FGHIRWXY/LB1

Departure

Time 2026-05-06 14:41
Airport Henry E. Rohlsen Airport (TISX)

Arrival

Time 2026-05-06 17:26
Airport Miami International Airport (KMIA)
Time Latitude Longitude Altitude Speed Heading
2026-05-06 14:10 17.69909 -64.79558 47 ft 0 kts 264°
2026-05-06 14:30 17.69910 -64.79549 47 ft 2 kts 264°
2026-05-06 14:30 17.69911 -64.79533 47 ft 2 kts 283°
2026-05-06 14:30 17.69904 -64.79519 47 ft 2 kts 311°
2026-05-06 14:31 17.69892 -64.79510 46 ft 2 kts 339°
2026-05-06 14:31 17.69884 -64.79507 46 ft 1 kts 354°
2026-05-06 14:31 17.69879 -64.79507 46 ft 0 kts 354°
2026-05-06 14:34 17.69881 -64.79507 46 ft 1 kts 356°
2026-05-06 14:35 17.69924 -64.79511 47 ft 9 kts 354°
2026-05-06 14:35 17.69983 -64.79517 50 ft 7 kts 355°
2026-05-06 14:35 17.70023 -64.79522 51 ft 4 kts 352°
2026-05-06 14:35 17.70049 -64.79527 52 ft 5 kts 348°
2026-05-06 14:36 17.70074 -64.79591 53 ft 14 kts 266°
2026-05-06 14:36 17.70061 -64.79732 54 ft 23 kts 264°
2026-05-06 14:36 17.70041 -64.79918 55 ft 26 kts 263°
2026-05-06 14:36 17.70022 -64.80109 56 ft 25 kts 270°
2026-05-06 14:37 17.70013 -64.80270 60 ft 17 kts 258°
2026-05-06 14:37 17.69992 -64.80395 63 ft 19 kts 264°
2026-05-06 14:37 17.69975 -64.80571 68 ft 28 kts 264°
2026-05-06 14:37 17.69955 -64.80778 73 ft 27 kts 262°
2026-05-06 14:38 17.69936 -64.80966 76 ft 25 kts 264°
2026-05-06 14:38 17.69918 -64.81143 79 ft 23 kts 263°
2026-05-06 14:38 17.69892 -64.81307 81 ft 21 kts 256°
2026-05-06 14:38 17.69883 -64.81416 83 ft 12 kts 269°
2026-05-06 14:39 17.69878 -64.81538 85 ft 17 kts 271°
2026-05-06 14:39 17.69905 -64.81595 86 ft 0 kts 332°
2026-05-06 14:40 17.69905 -64.81596 86 ft 0 kts 332°
2026-05-06 14:40 17.69951 -64.81604 86 ft 9 kts 354°
2026-05-06 14:40 17.70003 -64.81600 87 ft 5 kts 36°
2026-05-06 14:41 17.70014 -64.81564 87 ft 6 kts 83°
2026-05-06 14:41 17.70039 -64.81298 84 ft 77 kts 85°
2026-05-06 14:41 17.70125 -64.80450 68 ft 150 kts 86°
2026-05-06 14:41 17.70285 -64.79343 731 ft 155 kts 81°
2026-05-06 14:42 17.70435 -64.78204 1356 ft 161 kts 97°
2026-05-06 14:42 17.70190 -64.77080 1989 ft 162 kts 107°
2026-05-06 14:42 17.69805 -64.75980 2608 ft 167 kts 107°
2026-05-06 14:42 17.69853 -64.74698 2933 ft 193 kts 66°
2026-05-06 14:43 17.70826 -64.73636 3443 ft 214 kts 40°
2026-05-06 14:43 17.72051 -64.72691 3951 ft 231 kts 38°
2026-05-06 14:43 17.73522 -64.71851 4507 ft 251 kts 23°
2026-05-06 14:43 17.75320 -64.71532 5083 ft 272 kts
2026-05-06 14:44 17.77204 -64.71930 5792 ft 283 kts 341°
2026-05-06 14:44 17.79007 -64.72791 6610 ft 288 kts 334°
2026-05-06 14:44 17.80771 -64.73766 7426 ft 291 kts 333°
2026-05-06 14:45 17.84369 -64.75733 9091 ft 295 kts 334°
2026-05-06 14:45 17.86214 -64.76702 9888 ft 297 kts 334°
2026-05-06 14:45 17.88059 -64.77662 10579 ft 304 kts 334°
2026-05-06 14:45 17.90006 -64.78670 11038 ft 319 kts 334°
2026-05-06 14:46 17.92039 -64.79724 11482 ft 333 kts 334°
2026-05-06 14:46 17.94151 -64.80820 12046 ft 344 kts 334°
2026-05-06 14:46 17.96323 -64.81949 12783 ft 348 kts 333°
2026-05-06 14:46 17.98498 -64.83081 13545 ft 352 kts 333°
2026-05-06 14:47 18.00696 -64.84226 14257 ft 356 kts 333°
2026-05-06 14:47 18.02905 -64.85377 15086 ft 358 kts 333°
2026-05-06 14:47 18.05143 -64.86543 15851 ft 361 kts 333°
2026-05-06 14:47 18.07403 -64.87721 16616 ft 364 kts 333°
2026-05-06 14:48 18.09676 -64.88905 17365 ft 367 kts 333°
2026-05-06 14:48 18.11962 -64.90099 18087 ft 370 kts 333°
2026-05-06 14:48 18.14287 -64.91311 18784 ft 372 kts 333°
2026-05-06 14:48 18.16582 -64.92509 19461 ft 374 kts 334°
2026-05-06 14:49 18.18920 -64.93727 20159 ft 376 kts 334°
2026-05-06 14:49 18.21239 -64.95008 20812 ft 378 kts 329°
2026-05-06 14:49 18.23389 -64.96634 21407 ft 382 kts 320°
2026-05-06 14:49 18.25289 -64.98588 22001 ft 386 kts 313°
2026-05-06 14:50 18.26956 -65.00791 22579 ft 390 kts 307°
2026-05-06 14:50 18.28443 -65.03198 23095 ft 396 kts 301°
2026-05-06 14:50 18.29617 -65.05822 23650 ft 401 kts 291°
2026-05-06 14:50 18.30325 -65.08655 24304 ft 404 kts 281°
2026-05-06 14:51 18.30541 -65.11600 24844 ft 409 kts 271°
2026-05-06 14:51 18.30260 -65.14573 25404 ft 413 kts 262°
2026-05-06 14:51 18.29726 -65.17568 25910 ft 415 kts 264°
2026-05-06 14:51 18.29549 -65.20567 26418 ft 414 kts 273°
2026-05-06 14:52 18.29872 -65.23546 26944 ft 414 kts 283°
2026-05-06 14:52 18.30709 -65.26472 27457 ft 414 kts 292°
2026-05-06 14:52 18.32005 -65.29157 27888 ft 417 kts 302°
2026-05-06 14:52 18.33693 -65.31665 28294 ft 421 kts 307°
2026-05-06 14:53 18.35494 -65.34091 28738 ft 423 kts 307°
2026-05-06 14:53 18.37271 -65.36568 29165 ft 425 kts 305°
2026-05-06 14:53 18.38940 -65.39100 29525 ft 429 kts 303°
2026-05-06 14:53 18.40560 -65.41775 29912 ft 432 kts 301°
2026-05-06 14:54 18.42093 -65.44496 30346 ft 434 kts 299°
2026-05-06 14:54 18.43578 -65.47272 30735 ft 436 kts 298°
2026-05-06 14:54 18.45028 -65.50082 31088 ft 440 kts 297°
2026-05-06 14:54 18.46454 -65.52908 31503 ft 441 kts 297°
2026-05-06 14:55 18.47871 -65.55756 32019 ft 440 kts 297°
2026-05-06 14:55 18.49271 -65.58586 32679 ft 435 kts 296°
2026-05-06 14:55 18.50650 -65.61388 33351 ft 430 kts 296°
2026-05-06 14:55 18.52033 -65.64204 33839 ft 430 kts 296°
2026-05-06 14:56 18.53384 -65.66959 34303 ft 429 kts 296°
2026-05-06 14:56 18.54753 -65.69746 34825 ft 427 kts 295°
2026-05-06 14:56 18.56115 -65.72523 35339 ft 426 kts 295°
2026-05-06 14:56 18.57463 -65.75275 35817 ft 424 kts 295°
2026-05-06 14:57 18.58807 -65.78020 36217 ft 424 kts 295°
2026-05-06 14:57 18.60169 -65.80803 36538 ft 425 kts 295°
2026-05-06 14:57 18.61526 -65.83578 36799 ft 428 kts 295°
2026-05-06 14:57 18.62873 -65.86333 37073 ft 429 kts 295°
2026-05-06 14:58 18.64239 -65.89126 37489 ft 428 kts 294°
2026-05-06 14:58 18.65601 -65.91913 37893 ft 427 kts 294°
2026-05-06 14:58 18.66954 -65.94683 38124 ft 428 kts 294°
2026-05-06 14:59 18.69675 -66.00256 38121 ft 423 kts 294°
2026-05-06 14:59 18.72351 -66.05738 38118 ft 422 kts 294°
2026-05-06 15:00 18.75041 -66.11254 38113 ft 422 kts 294°
2026-05-06 15:00 18.77710 -66.16731 38114 ft 422 kts 294°
2026-05-06 15:01 18.80405 -66.22271 38109 ft 423 kts 294°
2026-05-06 15:01 18.83081 -66.27775 38105 ft 422 kts 294°
2026-05-06 15:02 18.85757 -66.33281 38108 ft 423 kts 294°
2026-05-06 15:02 18.88421 -66.38767 38105 ft 421 kts 294°
2026-05-06 15:03 18.91103 -66.44279 38109 ft 423 kts 295°
2026-05-06 15:03 18.94144 -66.49589 38111 ft 425 kts 303°
2026-05-06 15:04 18.97856 -66.54478 38113 ft 428 kts 307°
2026-05-06 15:04 19.01743 -66.59234 38112 ft 428 kts 308°
2026-05-06 15:05 19.05637 -66.63987 38114 ft 427 kts 308°
2026-05-06 15:05 19.09485 -66.68747 38113 ft 426 kts 307°
2026-05-06 15:06 19.13308 -66.73522 38114 ft 425 kts 307°
2026-05-06 15:06 19.17106 -66.78292 38114 ft 425 kts 307°
2026-05-06 15:07 19.20905 -66.83076 38114 ft 426 kts 307°
2026-05-06 15:07 19.24714 -66.87876 38116 ft 425 kts 307°
2026-05-06 15:08 19.28505 -66.92660 38113 ft 424 kts 308°
2026-05-06 15:08 19.32270 -66.97414 38112 ft 423 kts 308°
2026-05-06 15:09 19.36069 -67.02215 38112 ft 425 kts 308°
2026-05-06 15:09 19.39856 -67.07004 38111 ft 425 kts 308°
2026-05-06 15:10 19.43634 -67.11786 38107 ft 424 kts 308°
2026-05-06 15:10 19.47417 -67.16576 38109 ft 423 kts 308°
2026-05-06 15:11 19.51189 -67.21359 38109 ft 423 kts 309°
2026-05-06 15:11 19.54962 -67.26148 38104 ft 422 kts 309°
2026-05-06 15:12 19.58696 -67.30890 38105 ft 422 kts 309°
2026-05-06 15:12 19.62464 -67.35680 38105 ft 422 kts 309°
2026-05-06 15:13 19.66225 -67.40463 38100 ft 424 kts 309°
2026-05-06 15:13 19.70001 -67.45267 38104 ft 424 kts 309°
2026-05-06 15:14 19.73772 -67.50069 38099 ft 423 kts 309°
2026-05-06 15:14 19.77539 -67.54870 38099 ft 422 kts 309°
2026-05-06 15:15 19.81276 -67.59637 38099 ft 423 kts 310°
2026-05-06 15:15 19.85047 -67.64452 38095 ft 423 kts 309°
2026-05-06 15:16 19.88794 -67.69241 38099 ft 424 kts 309°
2026-05-06 15:16 19.92582 -67.74083 38098 ft 424 kts 309°
2026-05-06 15:17 19.96339 -67.78890 38097 ft 424 kts 309°
2026-05-06 15:17 20.00115 -67.83727 38094 ft 424 kts 310°
2026-05-06 15:18 20.03857 -67.88525 38092 ft 423 kts 310°
2026-05-06 15:18 20.07625 -67.93362 38090 ft 424 kts 310°
2026-05-06 15:19 20.11389 -67.98195 38094 ft 425 kts 310°
2026-05-06 15:19 20.15128 -68.03000 38088 ft 423 kts 310°
2026-05-06 15:20 20.18895 -68.07846 38091 ft 424 kts 310°
2026-05-06 15:20 20.22653 -68.12683 38091 ft 423 kts 310°
2026-05-06 15:21 20.26387 -68.17497 38091 ft 422 kts 310°
2026-05-06 15:21 20.30119 -68.22311 38089 ft 422 kts 310°
2026-05-06 15:22 20.33863 -68.27142 38090 ft 423 kts 310°
2026-05-06 15:22 20.37584 -68.31950 38092 ft 422 kts 310°
2026-05-06 15:23 20.41317 -68.36776 38091 ft 422 kts 310°
2026-05-06 15:23 20.44832 -68.41726 38091 ft 423 kts 304°
2026-05-06 15:24 20.47895 -68.47101 38090 ft 423 kts 301°
2026-05-06 15:24 20.50819 -68.52531 38090 ft 423 kts 301°
2026-05-06 15:25 20.53739 -68.57936 38089 ft 423 kts 302°
2026-05-06 15:25 20.56718 -68.63398 38092 ft 423 kts 302°
2026-05-06 15:26 20.59670 -68.68783 38093 ft 423 kts 302°
2026-05-06 15:26 20.62650 -68.74210 38091 ft 424 kts 302°
2026-05-06 15:27 20.65611 -68.79607 38092 ft 423 kts 302°
2026-05-06 15:27 20.68582 -68.85025 38091 ft 423 kts 302°
2026-05-06 15:28 20.71541 -68.90427 38090 ft 421 kts 302°
2026-05-06 15:28 20.74497 -68.95828 38091 ft 422 kts 302°
2026-05-06 15:29 20.77447 -69.01221 38090 ft 424 kts 302°
2026-05-06 15:29 20.80423 -69.06667 38088 ft 424 kts 302°
2026-05-06 15:30 20.83391 -69.12106 38090 ft 423 kts 302°
2026-05-06 15:30 20.86324 -69.17489 38088 ft 420 kts 302°
2026-05-06 15:31 20.89263 -69.22885 38090 ft 421 kts 302°
2026-05-06 15:31 20.92213 -69.28307 38090 ft 421 kts 303°
2026-05-06 15:32 20.96603 -69.36385 38091 ft 420 kts 303°
2026-05-06 15:32 20.99518 -69.41753 38093 ft 420 kts 303°
2026-05-06 15:33 21.02456 -69.47172 38091 ft 420 kts 303°
2026-05-06 15:33 21.05370 -69.52552 38093 ft 418 kts 303°
2026-05-06 15:34 21.08267 -69.57906 38093 ft 416 kts 303°
2026-05-06 15:34 21.11162 -69.63258 38094 ft 418 kts 303°
2026-05-06 15:35 21.14073 -69.68649 38094 ft 416 kts 303°
2026-05-06 15:35 21.16953 -69.73986 38095 ft 416 kts 303°
2026-05-06 15:36 21.19841 -69.79343 38094 ft 415 kts 303°
2026-05-06 15:36 21.22731 -69.84707 38096 ft 414 kts 303°
2026-05-06 15:37 21.25604 -69.90045 38096 ft 416 kts 304°
2026-05-06 15:37 21.28468 -69.95373 38095 ft 415 kts 304°
2026-05-06 15:38 21.31349 -70.00737 38098 ft 415 kts 304°
2026-05-06 15:38 21.34224 -70.06097 38095 ft 415 kts 304°
2026-05-06 15:39 21.37080 -70.11429 38096 ft 413 kts 304°
2026-05-06 15:39 21.39939 -70.16766 38092 ft 413 kts 304°
2026-05-06 15:40 21.42793 -70.22098 38086 ft 412 kts 304°
2026-05-06 15:40 21.45625 -70.27399 38085 ft 409 kts 305°
2026-05-06 15:41 21.48459 -70.32703 38085 ft 413 kts 305°
2026-05-06 15:41 21.51311 -70.38049 38086 ft 411 kts 305°
2026-05-06 15:42 21.54146 -70.43372 38089 ft 409 kts 305°
2026-05-06 15:42 21.56956 -70.48650 38085 ft 411 kts 305°
2026-05-06 15:43 21.59781 -70.53962 38087 ft 410 kts 305°
2026-05-06 15:43 21.62604 -70.59280 38086 ft 407 kts 306°
2026-05-06 15:44 21.65409 -70.64558 38086 ft 409 kts 305°
2026-05-06 15:44 21.68214 -70.69852 38088 ft 408 kts 305°
2026-05-06 15:45 21.71015 -70.75135 38090 ft 409 kts 305°
2026-05-06 15:45 21.73816 -70.80427 38087 ft 408 kts 305°
2026-05-06 15:46 21.76618 -70.85729 38086 ft 407 kts 306°
2026-05-06 15:46 21.79413 -70.91021 38089 ft 408 kts 305°
2026-05-06 15:47 21.82206 -70.96315 38088 ft 408 kts 305°
2026-05-06 15:47 21.84982 -71.01582 38085 ft 406 kts 306°
2026-05-06 15:48 21.87772 -71.06881 38085 ft 406 kts 306°
2026-05-06 15:48 21.90547 -71.12156 38089 ft 406 kts 306°
2026-05-06 15:49 21.93319 -71.17434 38085 ft 405 kts 306°
2026-05-06 15:49 21.96086 -71.22702 38087 ft 404 kts 306°
2026-05-06 15:50 21.98823 -71.27918 38084 ft 403 kts 306°
2026-05-06 15:50 22.01583 -71.33180 38078 ft 403 kts 306°
2026-05-06 15:51 22.04331 -71.38432 38076 ft 402 kts 306°
2026-05-06 15:51 22.07079 -71.43687 38070 ft 403 kts 306°
2026-05-06 15:52 22.09802 -71.48905 38074 ft 401 kts 306°
2026-05-06 15:52 22.12537 -71.54146 38073 ft 399 kts 306°
2026-05-06 15:53 22.15260 -71.59368 38078 ft 401 kts 306°
2026-05-06 15:53 22.17974 -71.64580 38075 ft 397 kts 306°
2026-05-06 15:54 22.20682 -71.69783 38073 ft 399 kts 306°
2026-05-06 15:54 22.23389 -71.74988 38078 ft 399 kts 306°
2026-05-06 15:55 22.26098 -71.80203 38079 ft 399 kts 306°
2026-05-06 15:55 22.28780 -71.85377 38078 ft 398 kts 306°
2026-05-06 15:56 22.31478 -71.90578 38077 ft 397 kts 306°
2026-05-06 15:56 22.34172 -71.95785 38074 ft 396 kts 306°
2026-05-06 15:57 22.36847 -72.00957 38078 ft 396 kts 306°
2026-05-06 15:57 22.39537 -72.06159 38079 ft 398 kts 306°
2026-05-06 15:58 22.42212 -72.11341 38075 ft 396 kts 307°
2026-05-06 15:58 22.44892 -72.16540 38076 ft 395 kts 306°
2026-05-06 15:59 22.47557 -72.21716 38078 ft 396 kts 306°
2026-05-06 15:59 22.50246 -72.26932 38078 ft 396 kts 306°
2026-05-06 16:00 22.52913 -72.32122 38074 ft 394 kts 306°
2026-05-06 16:00 22.55555 -72.37271 38077 ft 393 kts 306°
2026-05-06 16:01 22.58225 -72.42466 38079 ft 396 kts 306°
2026-05-06 16:01 22.60891 -72.47671 38076 ft 394 kts 306°
2026-05-06 16:02 22.63538 -72.52842 38075 ft 394 kts 306°
2026-05-06 16:02 22.66183 -72.58015 38075 ft 394 kts 306°
2026-05-06 16:03 22.68833 -72.63203 38074 ft 393 kts 306°
2026-05-06 16:03 22.71474 -72.68374 38074 ft 394 kts 306°
2026-05-06 16:04 22.74120 -72.73556 38074 ft 391 kts 306°
2026-05-06 16:04 22.76741 -72.78703 38074 ft 392 kts 306°
2026-05-06 16:05 22.79369 -72.83868 38072 ft 393 kts 306°
2026-05-06 16:05 22.82011 -72.89078 38072 ft 393 kts 306°
2026-05-06 16:06 22.84633 -72.94253 38070 ft 392 kts 306°
2026-05-06 16:06 22.87246 -72.99414 38071 ft 393 kts 306°
2026-05-06 16:07 22.89877 -73.04619 38071 ft 394 kts 305°
2026-05-06 16:07 22.92503 -73.09819 38071 ft 393 kts 305°
2026-05-06 16:08 22.95123 -73.15009 38070 ft 393 kts 305°
2026-05-06 16:08 22.97735 -73.20191 38070 ft 393 kts 305°
2026-05-06 16:09 23.00341 -73.25367 38070 ft 391 kts 305°
2026-05-06 16:09 23.02962 -73.30577 38070 ft 393 kts 305°
2026-05-06 16:10 23.05568 -73.35762 38070 ft 393 kts 305°
2026-05-06 16:10 23.08196 -73.40990 38070 ft 394 kts 305°
2026-05-06 16:11 23.10807 -73.46198 38070 ft 394 kts 305°
2026-05-06 16:11 23.13406 -73.51389 38071 ft 394 kts 304°
2026-05-06 16:12 23.16003 -73.56580 38070 ft 391 kts 305°
2026-05-06 16:12 23.18622 -73.61812 38070 ft 395 kts 304°
2026-05-06 16:13 23.21234 -73.67041 38070 ft 394 kts 304°
2026-05-06 16:13 23.23848 -73.72275 38070 ft 395 kts 304°
2026-05-06 16:14 23.26451 -73.77499 38070 ft 394 kts 304°
2026-05-06 16:14 23.29055 -73.82724 38070 ft 395 kts 304°
2026-05-06 16:15 23.31664 -73.87971 38070 ft 394 kts 304°
2026-05-06 16:15 23.34281 -73.93233 38070 ft 395 kts 304°
2026-05-06 16:16 23.36876 -73.98463 38070 ft 395 kts 304°
2026-05-06 16:16 23.39485 -74.03724 38070 ft 396 kts 304°
2026-05-06 16:17 23.42097 -74.08998 38070 ft 396 kts 304°
2026-05-06 16:17 23.44691 -74.14241 38070 ft 397 kts 303°
2026-05-06 16:18 23.47315 -74.19551 38070 ft 396 kts 303°
2026-05-06 16:18 23.49917 -74.24819 38070 ft 396 kts 304°
2026-05-06 16:19 23.52521 -74.30100 38070 ft 397 kts 303°
2026-05-06 16:19 23.55129 -74.35394 38070 ft 398 kts 303°
2026-05-06 16:20 23.57735 -74.40689 38070 ft 398 kts 303°
2026-05-06 16:20 23.60349 -74.46006 38069 ft 397 kts 303°
2026-05-06 16:21 23.62953 -74.51310 38070 ft 397 kts 303°
2026-05-06 16:21 23.65539 -74.56584 38075 ft 396 kts 303°
2026-05-06 16:22 23.68129 -74.61871 38083 ft 394 kts 303°
2026-05-06 16:22 23.70701 -74.67123 38083 ft 395 kts 303°
2026-05-06 16:23 23.73283 -74.72401 38083 ft 395 kts 303°
2026-05-06 16:23 23.75862 -74.77684 38085 ft 395 kts 303°
2026-05-06 16:24 23.78455 -74.82998 38085 ft 396 kts 303°
2026-05-06 16:24 23.81028 -74.88280 38081 ft 395 kts 303°
2026-05-06 16:25 23.83600 -74.93565 38073 ft 394 kts 303°
2026-05-06 16:25 23.86162 -74.98832 38071 ft 395 kts 303°
2026-05-06 16:26 23.88737 -75.04131 38070 ft 396 kts 303°
2026-05-06 16:26 23.91311 -75.09432 38070 ft 397 kts 303°
2026-05-06 16:27 23.93891 -75.14761 38070 ft 395 kts 302°
2026-05-06 16:27 23.96455 -75.20055 38071 ft 397 kts 303°
2026-05-06 16:28 23.99031 -75.25381 38070 ft 397 kts 303°
2026-05-06 16:28 24.01595 -75.30687 38070 ft 396 kts 303°
2026-05-06 16:29 24.04161 -75.36005 38072 ft 397 kts 303°
2026-05-06 16:29 24.06747 -75.41372 38072 ft 397 kts 303°
2026-05-06 16:30 24.08871 -75.45782 38071 ft 396 kts 302°
2026-05-06 16:30 24.11872 -75.52020 38071 ft 397 kts 303°
2026-05-06 16:31 24.14442 -75.57370 38073 ft 397 kts 303°
2026-05-06 16:31 24.16998 -75.62697 38074 ft 397 kts 302°
2026-05-06 16:32 24.19557 -75.68039 38073 ft 397 kts 302°
2026-05-06 16:32 24.22102 -75.73357 38074 ft 396 kts 302°
2026-05-06 16:33 24.24659 -75.78702 38075 ft 397 kts 302°
2026-05-06 16:34 24.28496 -75.86733 38076 ft 397 kts 302°
2026-05-06 16:34 24.31052 -75.92092 38078 ft 398 kts 302°
2026-05-06 16:35 24.33608 -75.97463 38078 ft 397 kts 302°
2026-05-06 16:35 24.36162 -76.02832 38076 ft 398 kts 302°
2026-05-06 16:36 24.38709 -76.08190 38076 ft 396 kts 302°
2026-05-06 16:36 24.41249 -76.13541 38077 ft 397 kts 302°
2026-05-06 16:37 24.43777 -76.18872 38077 ft 396 kts 302°
2026-05-06 16:37 24.46318 -76.24236 38075 ft 397 kts 302°
2026-05-06 16:38 24.48863 -76.29619 38073 ft 396 kts 302°
2026-05-06 16:38 24.51387 -76.34959 38070 ft 398 kts 302°
2026-05-06 16:39 24.53936 -76.40357 38067 ft 396 kts 302°
2026-05-06 16:39 24.56458 -76.45707 38071 ft 397 kts 302°
2026-05-06 16:40 24.58980 -76.51063 38069 ft 396 kts 302°
2026-05-06 16:40 24.61513 -76.56445 38070 ft 397 kts 302°
2026-05-06 16:41 24.64043 -76.61832 38067 ft 395 kts 301°
2026-05-06 16:41 24.66561 -76.67197 38070 ft 396 kts 301°
2026-05-06 16:42 24.69073 -76.72557 38069 ft 396 kts 301°
2026-05-06 16:42 24.71587 -76.77930 38069 ft 395 kts 301°
2026-05-06 16:43 24.74096 -76.83292 38068 ft 397 kts 301°
2026-05-06 16:43 24.76603 -76.88658 38071 ft 397 kts 301°
2026-05-06 16:44 24.79119 -76.94055 38068 ft 396 kts 301°
2026-05-06 16:44 24.81630 -76.99442 38070 ft 397 kts 301°
2026-05-06 16:45 24.84139 -77.04833 38069 ft 396 kts 301°
2026-05-06 16:45 24.86645 -77.10223 38071 ft 396 kts 301°
2026-05-06 16:46 24.89141 -77.15599 38070 ft 395 kts 301°
2026-05-06 16:46 24.91645 -77.20997 38073 ft 396 kts 301°
2026-05-06 16:47 24.94128 -77.26359 38076 ft 395 kts 301°
2026-05-06 16:47 24.96637 -77.31782 38081 ft 398 kts 301°
2026-05-06 16:48 24.99141 -77.37195 38083 ft 398 kts 301°
2026-05-06 16:48 25.01403 -77.42734 38082 ft 403 kts 292°
2026-05-06 16:49 25.02167 -77.48922 38088 ft 415 kts 275°
2026-05-06 16:49 25.01787 -77.55286 38083 ft 420 kts 271°
2026-05-06 16:50 25.01193 -77.61662 38084 ft 419 kts 270°
2026-05-06 16:50 25.00596 -77.68007 38078 ft 418 kts 270°
2026-05-06 16:51 25.00024 -77.74366 38076 ft 421 kts 270°
2026-05-06 16:51 24.99458 -77.80788 38073 ft 420 kts 270°
2026-05-06 16:52 24.98897 -77.87174 38072 ft 421 kts 271°
2026-05-06 16:52 24.98336 -77.93571 38070 ft 420 kts 270°
2026-05-06 16:53 24.97774 -77.99950 38071 ft 421 kts 270°
2026-05-06 16:53 24.97215 -78.06335 38069 ft 420 kts 271°
2026-05-06 16:54 24.96906 -78.12721 38070 ft 417 kts 274°
2026-05-06 16:54 24.96761 -78.19095 38070 ft 418 kts 274°
2026-05-06 16:55 24.96610 -78.25476 38072 ft 416 kts 274°
2026-05-06 16:55 24.96434 -78.31848 38070 ft 416 kts 274°
2026-05-06 16:56 24.96239 -78.38214 38068 ft 418 kts 274°
2026-05-06 16:56 24.96033 -78.44588 38070 ft 418 kts 274°
2026-05-06 16:57 24.95820 -78.50942 38070 ft 417 kts 274°
2026-05-06 16:57 24.95606 -78.57294 38070 ft 416 kts 274°
2026-05-06 16:58 24.95568 -78.63622 37905 ft 411 kts 279°
2026-05-06 16:58 24.95834 -78.66719 37507 ft 403 kts 282°
2026-05-06 16:58 24.96227 -78.69759 37005 ft 398 kts 284°
2026-05-06 16:58 24.96673 -78.72723 36445 ft 394 kts 284°
2026-05-06 16:59 24.97140 -78.75676 35865 ft 392 kts 285°
2026-05-06 16:59 24.97610 -78.78637 35210 ft 391 kts 285°
2026-05-06 16:59 24.98070 -78.81567 34562 ft 390 kts 284°
2026-05-06 16:59 24.98524 -78.84508 33962 ft 389 kts 284°
2026-05-06 17:00 24.98973 -78.87446 33514 ft 397 kts 284°
2026-05-06 17:00 24.99441 -78.90492 32992 ft 413 kts 284°
2026-05-06 17:00 24.99913 -78.93616 32470 ft 414 kts 284°
2026-05-06 17:00 25.00372 -78.96717 31928 ft 411 kts 284°
2026-05-06 17:01 25.00822 -78.99796 31389 ft 407 kts 284°
2026-05-06 17:01 25.01266 -79.02848 30853 ft 404 kts 284°
2026-05-06 17:01 25.01708 -79.05882 30322 ft 400 kts 284°
2026-05-06 17:01 25.02226 -79.08852 29779 ft 395 kts 288°
2026-05-06 17:02 25.03013 -79.11700 29242 ft 387 kts 297°
2026-05-06 17:02 25.04170 -79.14326 28736 ft 379 kts 303°
2026-05-06 17:02 25.05521 -79.16791 28208 ft 374 kts 306°
2026-05-06 17:02 25.06956 -79.19186 27698 ft 370 kts 307°
2026-05-06 17:03 25.08391 -79.21513 27204 ft 366 kts 308°
2026-05-06 17:03 25.09800 -79.23791 26706 ft 363 kts 307°
2026-05-06 17:03 25.11225 -79.26107 26199 ft 360 kts 307°
2026-05-06 17:03 25.12613 -79.28382 25701 ft 357 kts 307°
2026-05-06 17:04 25.13977 -79.30636 25210 ft 355 kts 307°
2026-05-06 17:04 25.15336 -79.32891 24717 ft 352 kts 307°
2026-05-06 17:04 25.16687 -79.35143 24227 ft 350 kts 306°
2026-05-06 17:04 25.18017 -79.37364 23744 ft 347 kts 306°
2026-05-06 17:05 25.19338 -79.39575 23266 ft 344 kts 306°
2026-05-06 17:05 25.20642 -79.41760 22789 ft 342 kts 306°
2026-05-06 17:05 25.21947 -79.43946 22314 ft 340 kts 306°
2026-05-06 17:05 25.23232 -79.46102 21850 ft 338 kts 306°
2026-05-06 17:06 25.24511 -79.48248 21382 ft 336 kts 306°
2026-05-06 17:06 25.25800 -79.50412 20907 ft 334 kts 306°
2026-05-06 17:06 25.27063 -79.52533 20443 ft 332 kts 306°
2026-05-06 17:06 25.28319 -79.54643 19981 ft 330 kts 307°
2026-05-06 17:07 25.29579 -79.56763 19516 ft 328 kts 307°
2026-05-06 17:07 25.30825 -79.58858 19056 ft 326 kts 307°
2026-05-06 17:07 25.32060 -79.60937 18596 ft 324 kts 307°
2026-05-06 17:07 25.33297 -79.63022 18135 ft 322 kts 307°
2026-05-06 17:08 25.34509 -79.65064 17638 ft 322 kts 307°
2026-05-06 17:08 25.35740 -79.67139 17139 ft 322 kts 307°
2026-05-06 17:08 25.36964 -79.69200 16677 ft 320 kts 307°
2026-05-06 17:08 25.38186 -79.71260 16218 ft 319 kts 307°
2026-05-06 17:09 25.39403 -79.73292 15982 ft 316 kts 308°
2026-05-06 17:09 25.40666 -79.75294 15968 ft 321 kts 309°
2026-05-06 17:09 25.41977 -79.77313 15808 ft 325 kts 309°
2026-05-06 17:09 25.43274 -79.79303 15570 ft 319 kts 309°
2026-05-06 17:10 25.44555 -79.81282 15215 ft 315 kts 309°
2026-05-06 17:10 25.45816 -79.83238 14788 ft 313 kts 309°
2026-05-06 17:10 25.47089 -79.85219 14341 ft 312 kts 308°
2026-05-06 17:10 25.48329 -79.87151 13999 ft 310 kts 308°
2026-05-06 17:11 25.49577 -79.89100 13812 ft 306 kts 308°
2026-05-06 17:11 25.50796 -79.91006 13454 ft 303 kts 308°
2026-05-06 17:11 25.52011 -79.92904 13038 ft 302 kts 308°
2026-05-06 17:11 25.53222 -79.94795 12608 ft 301 kts 308°
2026-05-06 17:12 25.54427 -79.96679 12182 ft 301 kts 308°
2026-05-06 17:12 25.55638 -79.98572 11759 ft 300 kts 308°
2026-05-06 17:12 25.56837 -80.00446 11334 ft 300 kts 308°
2026-05-06 17:12 25.58024 -80.02303 11005 ft 296 kts 308°
2026-05-06 17:13 25.59207 -80.04159 10803 ft 289 kts 308°
2026-05-06 17:13 25.60364 -80.05972 10450 ft 288 kts 308°
2026-05-06 17:13 25.61504 -80.07758 10073 ft 286 kts 308°
2026-05-06 17:13 25.62645 -80.09547 9849 ft 277 kts 308°
2026-05-06 17:14 25.63751 -80.11282 9484 ft 276 kts 308°
2026-05-06 17:14 25.64855 -80.13015 9155 ft 273 kts 308°
2026-05-06 17:14 25.65842 -80.14806 8987 ft 272 kts 300°
2026-05-06 17:14 25.66674 -80.16684 8978 ft 277 kts 297°
2026-05-06 17:15 25.67477 -80.18625 8978 ft 277 kts 297°
2026-05-06 17:15 25.68273 -80.20564 8833 ft 271 kts 297°
2026-05-06 17:15 25.69057 -80.22443 8543 ft 268 kts 297°
2026-05-06 17:15 25.69847 -80.24313 8202 ft 268 kts 297°
2026-05-06 17:16 25.70635 -80.26174 7861 ft 267 kts 296°
2026-05-06 17:16 25.71243 -80.28127 7530 ft 268 kts 282°
2026-05-06 17:16 25.71322 -80.30164 7207 ft 268 kts 268°
2026-05-06 17:16 25.71164 -80.32227 6859 ft 269 kts 265°
2026-05-06 17:17 25.70990 -80.34288 6517 ft 268 kts 266°
2026-05-06 17:17 25.70853 -80.36327 6180 ft 267 kts 268°
2026-05-06 17:17 25.70744 -80.38389 5839 ft 267 kts 268°
2026-05-06 17:17 25.70649 -80.40424 5503 ft 266 kts 268°
2026-05-06 17:18 25.70555 -80.42477 5163 ft 266 kts 268°
2026-05-06 17:18 25.70457 -80.44525 4935 ft 261 kts 267°
2026-05-06 17:18 25.70318 -80.46458 4910 ft 247 kts 265°
2026-05-06 17:18 25.70151 -80.48326 4706 ft 240 kts 265°
2026-05-06 17:19 25.69987 -80.50137 4483 ft 236 kts 265°
2026-05-06 17:19 25.69830 -80.51952 4249 ft 237 kts 265°
2026-05-06 17:19 25.69710 -80.53761 4041 ft 236 kts 273°
2026-05-06 17:19 25.70200 -80.55435 3965 ft 229 kts 309°
2026-05-06 17:20 25.71417 -80.56593 3976 ft 231 kts 335°
2026-05-06 17:20 25.72925 -80.57155 3989 ft 229 kts 352°
2026-05-06 17:20 25.74516 -80.57166 3905 ft 227 kts 16°
2026-05-06 17:20 25.75899 -80.56359 3661 ft 225 kts 45°
2026-05-06 17:21 25.76833 -80.55000 3455 ft 220 kts 63°
2026-05-06 17:21 25.77345 -80.53405 3300 ft 219 kts 80°
2026-05-06 17:21 25.77543 -80.51733 3123 ft 220 kts 84°
2026-05-06 17:21 25.77700 -80.50066 2870 ft 219 kts 84°
2026-05-06 17:22 25.77877 -80.48385 2562 ft 218 kts 85°
2026-05-06 17:22 25.77989 -80.46727 2278 ft 210 kts 87°
2026-05-06 17:22 25.78052 -80.45179 2027 ft 193 kts 88°
2026-05-06 17:22 25.78103 -80.43739 1733 ft 185 kts 88°
2026-05-06 17:23 25.78158 -80.42346 1526 ft 176 kts 88°
2026-05-06 17:23 25.78213 -80.41035 1469 ft 163 kts 88°
2026-05-06 17:23 25.78266 -80.39803 1473 ft 158 kts 88°
2026-05-06 17:23 25.78322 -80.38626 1349 ft 147 kts 87°
2026-05-06 17:24 25.78372 -80.37560 1292 ft 138 kts 89°
2026-05-06 17:24 25.78402 -80.36476 1053 ft 140 kts 88°
2026-05-06 17:24 25.78463 -80.35384 705 ft 141 kts 88°
2026-05-06 17:24 25.78509 -80.34312 496 ft 138 kts 88°
2026-05-06 17:25 25.78552 -80.33251 351 ft 140 kts 89°
2026-05-06 17:25 25.78586 -80.32175 163 ft 138 kts 89°
2026-05-06 17:25 25.78643 -80.31045 44 ft 146 kts 88°
2026-05-06 17:25 25.78676 -80.30005 14 ft 115 kts 88°
2026-05-06 17:26 25.78700 -80.29366 14 ft 53 kts 90°
2026-05-06 17:26 25.78709 -80.29087 14 ft 24 kts 88°
2026-05-06 17:26 25.78713 -80.29008 14 ft 0 kts 87°
2026-05-06 17:26 25.78715 -80.28958 14 ft 24 kts 87°
2026-05-06 17:27 25.78775 -80.28734 14 ft 18 kts 50°
2026-05-06 17:27 25.78854 -80.28648 14 ft 12 kts 41°
2026-05-06 17:27 25.78912 -80.28588 14 ft 9 kts 51°
2026-05-06 17:27 25.78920 -80.28577 14 ft 0 kts 54°
2026-05-06 17:30 25.78921 -80.28576 14 ft 1 kts 47°
2026-05-06 17:30 25.78974 -80.28539 14 ft 11 kts 30°
2026-05-06 17:30 25.79045 -80.28494 14 ft 12 kts 30°
2026-05-06 17:30 25.79121 -80.28440 14 ft 12 kts 35°
2026-05-06 17:31 25.79196 -80.28410 14 ft 11 kts 353°
2026-05-06 17:31 25.79250 -80.28468 14 ft 10 kts 296°
2026-05-06 17:31 25.79264 -80.28505 14 ft 4 kts 297°
2026-05-06 17:31 25.79283 -80.28538 14 ft 4 kts 315°
2026-05-06 17:32 25.79312 -80.28556 14 ft 4 kts 342°
2026-05-06 17:32 25.79345 -80.28567 14 ft 4 kts 343°
2026-05-06 17:32 25.79378 -80.28577 14 ft 4 kts 353°
2026-05-06 17:32 25.79412 -80.28575 14 ft 5 kts
2026-05-06 17:33 25.79456 -80.28567 14 ft 7 kts
2026-05-06 17:33 25.79538 -80.28575 14 ft 15 kts 356°
2026-05-06 17:33 25.79617 -80.28567 14 ft 9 kts 24°
2026-05-06 17:33 25.79656 -80.28546 14 ft 5 kts 23°
2026-05-06 17:34 25.79687 -80.28532 14 ft 4 kts 22°
2026-05-06 17:34 25.79703 -80.28525 14 ft 0 kts 22°
2026-05-06 17:34 25.79707 -80.28523 14 ft 0 kts 21°
2026-05-06 17:34 25.79710 -80.28522 14 ft 0 kts 21°